CW1160 Weather Reports


Display with metric or nautical units.
time (UTC)temp
F
wind
direction
speed
MPH
gust
MPH
rain 1hr
in
rain 24hr
in
rain mn
in
humidity
%
barometer
mb
20190420185647 67 50 1.0 3.0 0.00 0.00 0.00 36 1027.2
20190420185151 67 74 2.0 7.0 0.00 0.00 0.00 35 1027.2
20190420184645 67 54 3.0 7.0 0.00 0.00 0.00 35 1027.3
20190420184148 68 62 2.0 4.0 0.00 0.00 0.00 35 1027.2
20190420183642 68 56 2.0 4.0 0.00 0.00 0.00 35 1027.3
20190420183206 68 81 2.0 8.0 0.00 0.00 0.00 34 1027.3
20190420182658 69 78 3.0 8.0 0.00 0.00 0.00 34 1027.2
20190420182201 69 61 3.0 8.0 0.00 0.00 0.00 33 1027.1
20190420181654 70 28 3.0 8.0 0.00 0.00 0.00 33 1027.2
20190420181157 70 64 3.0 8.0 0.00 0.00 0.00 33 1027.2
20190420180650 70 71 2.0 8.0 0.00 0.00 0.00 32 1027.2
20190420180152 71 42 4.0 9.0 0.00 0.00 0.00 32 1027.2
20190420175646 71 56 5.0 9.0 0.00 0.00 0.00 31 1027.1
20190420175142 71 52 3.0 10.0 0.00 0.00 0.00 31 1027.2
20190420174643 72 69 4.0 10.0 0.00 0.00 0.00 31 1027.2
20190420174205 72 92 3.0 10.0 0.00 0.00 0.00 30 1027.1
20190420173659 72 18 5.0 9.0 0.00 0.00 0.00 30 1027.2
20190420173155 72 56 4.0 9.0 0.00 0.00 0.00 30 1027.2
20190420172656 73 66 4.0 10.0 0.00 0.00 0.00 29 1027.2
20190420172152 74 84 5.0 10.0 0.00 0.00 0.00 29 1027.3
20190420171653 74 64 3.0 11.0 0.00 0.00 0.00 28 1027.3
20190420171149 74 70 5.0 11.0 0.00 0.00 0.00 28 1027.2
20190420170649 75 53 5.0 14.0 0.00 0.00 0.00 28 1027.3
20190420170146 75 94 3.0 14.0 0.00 0.00 0.00 28 1027.3
20190420165640 75 60 5.0 10.0 0.00 0.00 0.00 28 1027.4
20190420165143 75 49 3.0 9.0 0.00 0.00 0.00 28 1027.3
20190420164704 75 92 6.0 12.0 0.00 0.00 0.00 28 1027.4
20190420164200 75 55 6.0 12.0 0.00 0.00 0.00 28 1027.4
20190420163701 75 84 6.0 12.0 0.00 0.00 0.00 28 1027.3
20190420163156 76 84 5.0 15.0 0.00 0.00 0.00 28 1027.4
20190420162650 76 94 7.0 15.0 0.00 0.00 0.00 28 1027.3
20190420162150 76 55 8.0 15.0 0.00 0.00 0.00 27 1027.4
20190420161644 76 58 6.0 13.0 0.00 0.00 0.00 27 1027.5
20190420161147 76 36 6.0 15.0 0.00 0.00 0.00 27 1027.5
20190420160641 76 59 8.0 16.0 0.00 0.00 0.00 27 1027.5
20190420160156 77 45 8.0 16.0 0.00 0.00 0.00 27 1027.6
20190420155650 77 60 6.0 11.0 0.00 0.00 0.00 27 1027.5
20190420155153 77 5 4.0 13.0 0.00 0.00 0.00 28 1027.6
20190420154647 77 35 5.0 13.0 0.00 0.00 0.00 27 1027.7
20190420154150 78 90 7.0 13.0 0.00 0.00 0.00 27 1027.6
20190420153642 77 81 6.0 13.0 0.00 0.00 0.00 26 1027.7
20190420153144 77 80 9.0 13.0 0.00 0.00 0.00 25 1027.6
20190420152657 78 26 5.0 13.0 0.00 0.00 0.00 26 1027.7
20190420152200 78 69 6.0 16.0 0.00 0.00 0.00 25 1027.6
20190420151651 78 51 10.0 16.0 0.00 0.00 0.00 25 1027.8
20190420151154 79 5 2.0 9.0 0.00 0.00 0.00 25 1027.8
20190420150648 79 9 4.0 10.0 0.00 0.00 0.00 25 1027.8
20190420150143 78 75 4.0 11.0 0.00 0.00 0.00 26 1027.8
20190420145643 78 53 7.0 13.0 0.00 0.00 0.00 25 1027.9
20190420145207 78 36 5.0 14.0 0.00 0.00 0.00 25 1027.9
20190420144641 79 119 7.0 13.0 0.00 0.00 0.00 26 1027.9
20190420144204 79 12 5.0 14.0 0.00 0.00 0.00 25 1027.9
20190420143656 79 61 9.0 15.0 0.00 0.00 0.00 25 1027.9
20190420143153 79 76 8.0 15.0 0.00 0.00 0.00 26 1027.9
20190420142654 79 124 4.0 10.0 0.00 0.00 0.00 27 1027.9
20190420142150 79 109 5.0 11.0 0.00 0.00 0.00 25 1028.0
20190420141650 79 93 4.0 13.0 0.00 0.00 0.00 25 1028.0
20190420141143 79 88 8.0 13.0 0.00 0.00 0.00 24 1028.2
20190420140643 79 119 4.0 13.0 0.00 0.00 0.00 25 1028.1
20190420140155 79 118 3.0 13.0 0.00 0.00 0.00 23 1028.1
20190420135640 79 68 3.0 11.0 0.00 0.00 0.00 26 1028.2
20190420135152 79 98 6.0 12.0 0.00 0.00 0.00 25 1028.3
20190420134653 79 74 5.0 16.0 0.00 0.00 0.00 25 1028.3
20190420134148 78 68 5.0 16.0 0.00 0.00 0.00 25 1028.3
20190420133648 78 69 7.0 13.0 0.00 0.00 0.00 25 1028.4
20190420133145 79 105 6.0 9.0 0.00 0.00 0.00 25 1028.6
20190420132706 79 84 5.0 9.0 0.00 0.00 0.00 25 1028.5
20190420132141 78 113 4.0 13.0 0.00 0.00 0.00 25 1028.6
20190420131702 78 143 4.0 13.0 0.00 0.00 0.00 24 1028.7
20190420131157 78 95 5.0 11.0 0.00 0.00 0.00 25 1028.8
20190420130651 78 98 6.0 11.0 0.00 0.00 0.00 24 1028.9
20190420130146 78 113 4.0 11.0 0.00 0.00 0.00 25 1028.8
20190420125639 78 155 3.0 11.0 0.00 0.00 0.00 25 1028.8
20190420125143 78 76 6.0 11.0 0.00 0.00 0.00 26 1029.0
20190420124704 78 175 3.0 12.0 0.00 0.00 0.00 27 1028.9
20190420124200 78 117 4.0 13.0 0.00 0.00 0.00 25 1028.9
20190420123653 78 107 5.0 12.0 0.00 0.00 0.00 26 1028.9
20190420123156 78 109 7.0 13.0 0.00 0.00 0.00 26 1029.0
20190420122650 77 117 8.0 13.0 0.00 0.00 0.00 26 1029.0
20190420122153 78 153 5.0 14.0 0.00 0.00 0.00 25 1029.0
20190420121644 78 130 9.0 15.0 0.00 0.00 0.00 27 1029.1
20190420121147 78 49 4.0 15.0 0.00 0.00 0.00 27 1029.1
20190420120641 78 90 5.0 12.0 0.00 0.00 0.00 26 1029.1
20190420120203 77 104 4.0 11.0 0.00 0.00 0.00 28 1029.1
20190420115657 77 65 6.0 11.0 0.00 0.00 0.00 28 1029.1
20190420115159 77 61 4.0 11.0 0.00 0.00 0.00 28 1029.3
20190420114653 76 360 7.0 11.0 0.00 0.00 0.00 29 1029.3
20190420114156 76 103 5.0 16.0 0.00 0.00 0.00 30 1029.4
20190420113650 76 88 7.0 14.0 0.00 0.00 0.00 31 1029.4
20190420113146 76 37 6.0 13.0 0.00 0.00 0.00 31 1029.5
20190420112646 76 121 5.0 13.0 0.00 0.00 0.00 30 1029.6
20190420112142 76 75 2.0 12.0 0.00 0.00 0.00 32 1029.7
20190420111643 76 93 5.0 12.0 0.00 0.00 0.00 31 1029.6
20190420111158 76 107 6.0 12.0 0.00 0.00 0.00 31 1029.8
20190420110659 75 59 6.0 15.0 0.00 0.00 0.00 32 1029.7
20190420110155 75 42 9.0 15.0 0.00 0.00 0.00 31 1029.9
20190420105656 75 70 8.0 15.0 0.00 0.00 0.00 32 1029.9
20190420105152 75 5 8.0 15.0 0.00 0.00 0.00 30 1029.9
20190420104653 75 71 9.0 14.0 0.00 0.00 0.00 31 1030.1
20190420104149 75 94 7.0 14.0 0.00 0.00 0.00 32 1030.1
20190420103643 74 115 7.0 14.0 0.00 0.00 0.00 32 1030.1
20190420103146 75 14 4.0 12.0 0.00 0.00 0.00 31 1030.2
20190420102640 74 133 4.0 12.0 0.00 0.00 0.00 32 1030.1
20190420102142 74 37 5.0 14.0 0.00 0.00 0.00 34 1030.1
20190420101703 73 59 5.0 14.0 0.00 0.00 0.00 34 1030.2
20190420101159 74 76 7.0 13.0 0.00 0.00 0.00 34 1030.1
20190420100653 73 57 6.0 12.0 0.00 0.00 0.00 33 1030.3
20190420100148 74 55 5.0 12.0 0.00 0.00 0.00 35 1030.3
20190420095642 73 131 4.0 12.0 0.00 0.00 0.00 35 1030.3
20190420095145 72 79 5.0 12.0 0.00 0.00 0.00 35 1030.3
20190420094705 72 68 6.0 10.0 0.00 0.00 0.00 37 1030.5
20190420094201 72 81 4.0 12.0 0.00 0.00 0.00 37 1030.4
20190420093659 72 39 5.0 12.0 0.00 0.00 0.00 38 1030.5
20190420093155 72 63 7.0 12.0 0.00 0.00 0.00 37 1030.5
20190420092649 72 39 3.0 8.0 0.00 0.00 0.00 39 1030.3
20190420092152 71 75 5.0 10.0 0.00 0.00 0.00 39 1030.3
20190420091646 70 5 4.0 10.0 0.00 0.00 0.00 40 1030.4
20190420091149 70 131 4.0 9.0 0.00 0.00 0.00 40 1030.4
20190420090643 70 79 3.0 9.0 0.00 0.00 0.00 39 1030.5
20190420090146 70 36 3.0 9.0 0.00 0.00 0.00 41 1030.5
20190420085658 69 97 6.0 9.0 0.00 0.00 0.00 39 1030.5
20190420085201 69 53 4.0 7.0 0.00 0.00 0.00 38 1030.6
20190420084655 69 86 4.0 7.0 0.00 0.00 0.00 42 1030.6
20190420084157 68 95 3.0 8.0 0.00 0.00 0.00 43 1030.7
20190420083651 68 74 4.0 11.0 0.00 0.00 0.00 42 1030.6
20190420083154 68 93 6.0 11.0 0.00 0.00 0.00 41 1030.7
20190420082648 68 122 3.0 8.0 0.00 0.00 0.00 43 1030.8
20190420082144 67 87 4.0 9.0 0.00 0.00 0.00 43 1030.8
20190420081645 67 10 4.0 9.0 0.00 0.00 0.00 44 1030.8
20190420081141 66 39 3.0 10.0 0.00 0.00 0.00 44 1030.9
20190420080642 65 110 2.0 10.0 0.00 0.00 0.00 46 1030.9
20190420080157 65 103 6.0 10.0 0.00 0.00 0.00 46 1031.0
20190420075658 65 78 3.0 9.0 0.00 0.00 0.00 48 1031.0
20190420075154 64 67 4.0 9.0 0.00 0.00 0.00 46 1031.0
20190420074655 64 63 5.0 9.0 0.00 0.00 0.00 47 1030.9
20190420074151 64 38 3.0 6.0 0.00 0.00 0.00 48 1030.8
20190420073651 63 63 3.0 5.0 0.00 0.00 0.00 48 1030.7
20190420073147 63 75 2.0 6.0 0.00 0.00 0.00 49 1030.8
20190420072640 62 20 3.0 6.0 0.00 0.00 0.00 50 1030.7
20190420072143 62 52 3.0 6.0 0.00 0.00 0.00 51 1030.7
20190420071704 61 86 3.0 7.0 0.00 0.00 0.00 51 1030.8
20190420071200 61 10 4.0 7.0 0.00 0.00 0.00 52 1030.8
20190420070701 60 30 3.0 8.0 0.00 0.00 0.00 52 1030.7
20190420070149 60 51 3.0 6.0 0.00 0.00 0.00 54 1030.6
20190420065643 60 57 4.0 6.0 0.00 0.00 0.00 53 1030.7
20190420065146 59 63 3.0 5.0 0.00 0.00 0.00 54 1030.8
20190420064640 59 52 1.0 6.0 0.00 0.00 0.00 55 1030.7
20190420064143 58 55 3.0 8.0 0.00 0.00 0.00 54 1030.7
20190420063704 58 19 3.0 6.0 0.00 0.00 0.00 56 1030.8
20190420063200 58 53 3.0 5.0 0.00 0.00 0.00 56 1030.8
20190420062654 57 55 3.0 5.0 0.00 0.00 0.00 57 1030.7
20190420062157 57 42 3.0 6.0 0.00 0.00 0.00 58 1030.7
20190420061651 56 58 3.0 6.0 0.00 0.00 0.00 58 1030.7
20190420061154 56 53 3.0 6.0 0.00 0.00 0.00 59 1030.8
20190420060648 56 54 2.0 6.0 0.00 0.00 0.00 59 1030.6
20190420060151 55 68 1.0 4.0 0.00 0.00 0.00 60 1030.6
20190420055645 55 43 2.0 5.0 0.00 0.00 0.00 61 1030.7
20190420055141 54 50 3.0 5.0 0.00 0.00 0.00 61 1030.5
20190420054642 54 55 3.0 5.0 0.00 0.00 0.00 63 1030.6
20190420054206 53 41 2.0 5.0 0.00 0.00 0.00 64 1030.5
20190420053659 52 57 2.0 5.0 0.00 0.00 0.00 66 1030.5
20190420053155 51 31 3.0 6.0 0.00 0.00 0.00 67 1030.4
20190420052656 51 45 3.0 6.0 0.00 0.00 0.00 68 1030.4
20190420052152 50 43 2.0 4.0 0.00 0.00 0.00 69 1030.4
20190420051653 50 40 2.0 4.0 0.00 0.00 0.00 69 1030.4
20190420051149 50 53 2.0 3.0 0.00 0.00 0.00 69 1030.4
20190420050650 50 36 2.0 4.0 0.00 0.00 0.00 69 1030.3
20190420050146 50 37 2.0 4.0 0.00 0.00 0.00 69 1030.3
20190420045640 50 42 1.0 4.0 0.00 0.00 0.00 69 1030.3
20190420045200 50 62 2.0 5.0 0.00 0.00 0.00 68 1030.2
20190420044701 50 51 2.0 5.0 0.00 0.00 0.00 68 1030.2
20190420044157 50 65 2.0 4.0 0.00 0.00 0.00 67 1030.1
20190420043658 50 55 1.0 4.0 0.00 0.00 0.00 68 1030.0
20190420043154 51 48 2.0 4.0 0.00 0.00 0.00 67 1030.0
20190420042648 51 61 2.0 4.0 0.00 0.00 0.00 67 1029.9
20190420042150 51 42 3.0 4.0 0.00 0.00 0.00 67 1030.0
20190420041644 51 79 2.0 5.0 0.00 0.00 0.00 67 1030.0
20190420041147 51 60 2.0 5.0 0.00 0.00 0.00 67 1030.0
20190420040641 51 83 2.0 6.0 0.00 0.00 0.00 67 1030.0
20190420040152 51 46 2.0 6.0 0.00 0.00 0.00 67 1029.9
20190420035646 51 42 2.0 4.0 0.00 0.00 0.00 67 1029.9
20190420035149 51 57 3.0 5.0 0.00 0.00 0.00 67 1030.0
20190420034643 51 43 2.0 5.0 0.00 0.00 0.00 66 1030.0
20190420034146 51 30 2.0 5.0 0.00 0.00 0.00 67 1029.9
20190420033640 51 53 2.0 5.0 0.00 0.00 0.00 66 1030.0
20190420033203 51 62 1.0 4.0 0.00 0.00 0.00 66 1030.0
20190420032657 51 59 3.0 5.0 0.00 0.00 0.00 66 1030.0
20190420032200 51 31 2.0 5.0 0.00 0.00 0.00 66 1030.0
20190420031654 51 27 2.0 5.0 0.00 0.00 0.00 67 1030.0
20190420031157 52 26 2.0 4.0 0.00 0.00 0.00 66 1030.0
20190420030651 52 33 2.0 4.0 0.00 0.00 0.00 65 1029.9
20190420030146 52 25 2.0 4.0 0.00 0.00 0.00 65 1029.8
20190420025647 52 75 2.0 6.0 0.00 0.00 0.00 65 1030.0
20190420025143 52 65 2.0 6.0 0.00 0.00 0.00 65 1029.9
20190420024644 52 59 2.0 6.0 0.00 0.00 0.00 65 1030.0
20190420024200 52 59 2.0 6.0 0.00 0.00 0.00 66 1029.9
20190420023641 52 36 2.0 5.0 0.00 0.00 0.00 66 1030.0
20190420023157 52 42 3.0 5.0 0.00 0.00 0.00 66 1029.9
20190420022658 52 46 2.0 5.0 0.00 0.00 0.00 66 1029.9
20190420022154 52 43 2.0 5.0 0.00 0.00 0.00 65 1029.8
20190420021655 52 55 2.0 5.0 0.00 0.00 0.00 65 1029.8
20190420021151 52 59 3.0 5.0 0.00 0.00 0.00 66 1029.7
20190420020645 52 43 3.0 5.0 0.00 0.00 0.00 66 1029.7
20190420020148 52 61 2.0 6.0 0.00 0.00 0.00 66 1029.7
20190420015642 52 49 4.0 6.0 0.00 0.00 0.00 66 1029.7
20190420015145 52 33 2.0 4.0 0.00 0.00 0.00 66 1029.6
20190420014706 52 38 2.0 3.0 0.00 0.00 0.00 66 1029.5
20190420014143 53 36 1.0 2.0 0.00 0.00 0.00 65 1029.5
20190420013656 53 36 2.0 2.0 0.00 0.00 0.00 65 1029.5
20190420013159 53 36 1.0 2.0 0.00 0.00 0.00 63 1029.5
20190420012653 54 36 1.0 2.0 0.00 0.00 0.00 63 1029.5
20190420012156 54 36 1.0 2.0 0.00 0.00 0.00 62 1029.4
20190420011650 54 38 1.0 4.0 0.00 0.00 0.00 62 1029.3
20190420011153 54 72 2.0 6.0 0.00 0.00 0.00 61 1029.3
20190420010647 55 65 2.0 7.0 0.00 0.00 0.00 61 1029.3
20190420010203 55 55 3.0 7.0 0.00 0.00 0.00 61 1029.3
20190420005653 55 60 3.0 5.0 0.00 0.00 0.00 61 1029.2
20190420005156 55 40 2.0 5.0 0.00 0.00 0.00 61 1029.3
20190420004650 55 70 2.0 5.0 0.00 0.00 0.00 61 1029.2
20190420004153 55 53 3.0 5.0 0.00 0.00 0.00 61 1029.3
20190420003647 55 57 3.0 5.0 0.00 0.00 0.00 61 1029.3
20190420003143 56 57 2.0 5.0 0.00 0.00 0.00 60 1029.4
20190420002644 56 47 2.0 4.0 0.00 0.00 0.00 60 1029.4
20190420002207 56 44 2.0 4.0 0.00 0.00 0.00 60 1029.4
20190420001641 56 57 2.0 6.0 0.00 0.00 0.00 59 1029.3
20190420001205 56 52 3.0 6.0 0.00 0.00 0.00 59 1029.4
20190420000658 57 56 3.0 6.0 0.00 0.00 0.00 59 1029.3
20190420000154 57 63 3.0 4.0 0.00 0.00 0.00 58 1029.5
20190419235655 57 63 2.0 5.0 0.00 0.00 0.00 58 1029.4
20190419235150 57 49 3.0 5.0 0.00 0.00 0.00 58 1029.5
20190419234651 57 63 3.0 5.0 0.00 0.00 0.00 57 1029.5
20190419234147 57 63 2.0 5.0 0.00 0.00 0.00 57 1029.5
20190419233641 58 74 3.0 6.0 0.00 0.00 0.00 57 1029.5
20190419233144 58 49 3.0 6.0 0.00 0.00 0.00 57 1029.5
20190419232705 58 65 2.0 5.0 0.00 0.00 0.00 57 1029.6
20190419232141 58 57 3.0 4.0 0.00 0.00 0.00 57 1029.6
20190419231702 58 55 2.0 4.0 0.00 0.00 0.00 57 1029.6
20190419231158 58 58 2.0 5.0 0.00 0.00 0.00 56 1029.5
20190419230652 58 59 3.0 6.0 0.00 0.00 0.00 56 1029.4
20190419230155 59 49 3.0 6.0 0.00 0.00 0.00 56 1029.5
20190419225649 59 58 3.0 6.0 0.00 0.00 0.00 56 1029.5
20190419225152 59 45 4.0 6.0 0.00 0.00 0.00 55 1029.5
20190419224646 59 57 2.0 6.0 0.00 0.00 0.00 55 1029.6
20190419224149 59 53 4.0 9.0 0.00 0.00 0.00 55 1029.6
20190419223643 59 44 4.0 9.0 0.00 0.00 0.00 55 1029.7
20190419223207 59 71 4.0 9.0 0.00 0.00 0.00 55 1029.7
20190419222640 59 55 3.0 6.0 0.00 0.00 0.00 55 1029.7
20190419222203 59 67 4.0 6.0 0.00 0.00 0.00 54 1029.7
20190419221657 59 49 4.0 5.0 0.00 0.00 0.00 54 1029.8
20190419221201 59 41 3.0 5.0 0.00 0.00 0.00 54 1029.7
20190419220653 60 53 3.0 5.0 0.00 0.00 0.00 54 1029.7
20190419220141 60 63 3.0 5.0 0.00 0.00 0.00 54 1029.7
20190419215642 60 35 3.0 7.0 0.00 0.00 0.00 53 1029.7
20190419215206 60 44 4.0 7.0 0.00 0.00 0.00 53 1029.7
20190419214659 60 73 3.0 6.0 0.00 0.00 0.00 52 1029.7
20190419214203 60 52 3.0 6.0 0.00 0.00 0.00 52 1029.6
20190419213656 60 59 2.0 5.0 0.00 0.00 0.00 52 1029.6
20190419213153 60 53 3.0 5.0 0.00 0.00 0.00 51 1029.7
20190419212653 60 67 3.0 5.0 0.00 0.00 0.00 51 1029.6
20190419212150 60 72 2.0 5.0 0.00 0.00 0.00 50 1029.7
20190419211650 60 50 2.0 4.0 0.00 0.00 0.00 50 1029.6
20190419211146 60 80 2.0 4.0 0.00 0.00 0.00 49 1029.6
20190419210640 60 63 2.0 5.0 0.00 0.00 0.00 48 1029.6
20190419210143 60 53 2.0 6.0 0.00 0.00 0.00 48 1029.5
20190419205704 60 63 3.0 6.0 0.00 0.00 0.00 48 1029.4
20190419205159 60 51 3.0 5.0 0.00 0.00 0.00 47 1029.5
20190419204700 60 41 3.0 5.0 0.00 0.00 0.00 46 1029.5
20190419204156 60 61 3.0 5.0 0.00 0.00 0.00 46 1029.6
20190419203650 60 37 2.0 5.0 0.00 0.00 0.00 46 1029.7
20190419203154 60 51 2.0 5.0 0.00 0.00 0.00 46 1029.8
20190419202647 60 44 2.0 3.0 0.00 0.00 0.00 46 1029.7
20190419202150 61 58 1.0 4.0 0.00 0.00 0.00 45 1029.7
20190419201644 61 43 2.0 5.0 0.00 0.00 0.00 46 1029.7
20190419201147 61 67 2.0 5.0 0.00 0.00 0.00 45 1029.6
20190419200641 61 51 1.0 4.0 0.00 0.00 0.00 45 1029.6
20190419200204 61 49 3.0 4.0 0.00 0.00 0.00 44 1029.6
20190419195658 61 61 2.0 4.0 0.00 0.00 0.00 44 1029.6
20190419195200 62 55 2.0 4.0 0.00 0.00 0.00 44 1029.5
20190419194654 62 54 1.0 3.0 0.00 0.00 0.00 44 1029.5
20190419194150 62 57 1.0 4.0 0.00 0.00 0.00 43 1029.3
20190419193651 63 46 2.0 3.0 0.00 0.00 0.00 43 1029.4
20190419193147 63 46 2.0 3.0 0.00 0.00 0.00 42 1029.2
20190419192648 64 46 1.0 3.0 0.00 0.00 0.00 42 1029.3
20190419192144 64 46 2.0 4.0 0.00 0.00 0.00 41 1029.2
20190419191645 65 46 2.0 3.0 0.00 0.00 0.00 40 1029.1
20190419191141 65 46 1.0 3.0 0.00 0.00 0.00 40 1029.1
20190419190702 66 46 2.0 3.0 0.00 0.00 0.00 38 1029.1
20190419190152 67 46 2.0 3.0 0.00 0.00 0.00 37 1029.0